KN6WGU Weather Reports


time (UTC)temp
C
wind
direction
speed
KPH
gust
KPH
rain 1hr
cm
rain 24hr
cm
rain mn
cm
humidity
%
barometer
mb
20260510164752 12 76 1.6 1.6 0.00 0.05 0.05 51 1012.0
20260510164249 12 139 0.0 0.0 0.00 0.05 0.05 54 1011.7
20260510163744 12 129 0.0 1.6 0.00 0.05 0.05 50 1011.6
20260510163240 12 102 0.0 1.6 0.00 0.05 0.05 54 1011.5
20260510162739 12 173 0.0 1.6 0.00 0.05 0.05 45 1011.6
20260510162237 12 102 0.0 0.0 0.00 0.05 0.05 52 1011.5
20260510161732 12 110 1.6 3.2 0.00 0.05 0.05 53 1011.3
20260510161228 12 126 3.2 3.2 0.00 0.05 0.05 52 1011.5
20260510160727 12 229 1.6 3.2 0.00 0.05 0.05 54 1011.2
20260510160227 11 165 0.0 1.6 0.00 0.05 0.05 54 1011.3
20260510155723 12 36 3.2 3.2 0.00 0.05 0.05 55 1011.0
20260510155219 12 261 3.2 3.2 0.00 0.05 0.05 52 1010.9
20260510154715 12 84 1.6 3.2 0.00 0.05 0.05 52 1011.2
20260510154211 12 126 1.6 1.6 0.00 0.05 0.05 53 1010.9
20260510153706 11 148 3.2 3.2 0.00 0.05 0.05 48 1011.1
20260510153202 12 113 1.6 1.6 0.00 0.05 0.05 49 1010.8
20260510152659 12 103 1.6 3.2 0.00 0.05 0.05 53 1011.0
20260510152155 12 104 0.0 0.0 0.00 0.05 0.05 54 1010.8
20260510151652 12 10 1.6 1.6 0.00 0.05 0.05 53 1010.9
20260510151151 11 352 3.2 3.2 0.00 0.05 0.05 52 1011.0
20260510150646 12 217 1.6 1.6 0.00 0.05 0.05 56 1010.8
20260510150141 12 112 1.6 1.6 0.00 0.05 0.05 50 1010.7
20260510145638 11 149 0.0 1.6 0.00 0.05 0.05 54 1010.8
20260510145134 11 52 3.2 4.8 0.00 0.05 0.05 55 1010.7
20260510144630 11 151 3.2 4.8 0.00 0.05 0.05 51 1010.8
20260510144127 11 154 0.0 1.6 0.00 0.05 0.05 53 1010.8
20260510143622 11 123 1.6 1.6 0.00 0.05 0.05 55 1010.8
20260510143119 11 110 3.2 4.8 0.00 0.05 0.05 51 1010.6
20260510142616 11 112 1.6 1.6 0.00 0.05 0.05 54 1010.6
20260510142112 11 145 0.0 0.0 0.00 0.05 0.05 55 1010.6
20260510141609 11 178 1.6 3.2 0.00 0.05 0.05 54 1010.8
20260510141108 11 105 1.6 1.6 0.00 0.05 0.05 53 1010.8
20260510140603 11 75 3.2 4.8 0.00 0.05 0.05 50 1010.8
20260510135558 11 108 3.2 3.2 0.00 0.05 0.05 51 1010.8
20260510135054 11 132 3.2 3.2 0.00 0.05 0.05 52 1010.6
20260510134551 11 114 1.6 1.6 0.00 0.05 0.05 54 1010.3
20260510134048 11 103 1.6 1.6 0.00 0.05 0.05 53 1010.6
20260510133545 11 37 4.8 6.4 0.00 0.05 0.05 58 1010.4
20260510133041 11 146 0.0 1.6 0.00 0.05 0.05 58 1010.2
20260510132538 10 89 1.6 1.6 0.00 0.05 0.05 62 1010.1
20260510132034 10 112 3.2 4.8 0.00 0.05 0.05 62 1010.2
20260510131532 10 118 1.6 3.2 0.00 0.05 0.05 64 1010.2
20260510131029 10 103 3.2 3.2 0.00 0.05 0.05 63 1010.1
20260510130525 10 125 1.6 1.6 0.00 0.05 0.05 62 1010.0
20260510130023 10 81 1.6 3.2 0.00 0.05 0.05 64 1009.8
20260510125519 10 53 1.6 1.6 0.00 0.05 0.05 65 1010.0
20260510125015 10 125 3.2 4.8 0.00 0.05 0.05 67 1009.6
20260510124513 10 103 1.6 3.2 0.00 0.05 0.05 66 1009.7
20260510124010 10 150 1.6 1.6 0.00 0.05 0.05 67 1009.6
20260510123510 10 129 1.6 1.6 0.00 0.05 0.05 68 1009.5
20260510123006 10 32 1.6 1.6 0.00 0.05 0.05 69 1009.4
20260510122502 10 90 1.6 1.6 0.00 0.05 0.05 68 1009.5
20260510121958 10 117 3.2 3.2 0.00 0.05 0.05 67 1009.2
20260510121455 10 308 3.2 3.2 0.00 0.05 0.05 67 1009.2
20260510120953 10 150 1.6 1.6 0.00 0.05 0.05 66 1009.1
20260510120450 10 113 1.6 3.2 0.00 0.05 0.05 66 1009.1
20260510115945 10 111 1.6 3.2 0.00 0.05 0.05 65 1009.0
20260510115443 10 63 1.6 1.6 0.00 0.05 0.05 65 1008.8
20260510114939 9 124 1.6 3.2 0.00 0.05 0.05 65 1008.9
20260510114436 9 72 3.2 4.8 0.00 0.05 0.05 67 1008.7
20260510113931 9 112 0.0 0.0 0.00 0.05 0.05 69 1008.4
20260510113427 9 109 1.6 3.2 0.00 0.05 0.05 66 1008.5
20260510112925 9 108 0.0 1.6 0.00 0.05 0.05 69 1008.3
20260510112422 9 18 1.6 3.2 0.00 0.05 0.05 67 1008.1
20260510111918 9 136 1.6 1.6 0.00 0.05 0.05 65 1008.0
20260510111414 9 38 1.6 3.2 0.00 0.05 0.05 66 1008.1
20260510110910 9 75 0.0 1.6 0.00 0.05 0.05 73 1008.0
20260510110407 9 121 1.6 3.2 0.00 0.05 0.05 74 1007.8
20260510105903 9 139 3.2 3.2 0.00 0.05 0.05 76 1007.8
20260510105402 9 106 0.0 1.6 0.00 0.05 0.05 76 1007.7
20260510104858 8 99 1.6 1.6 0.00 0.05 0.05 74 1007.5
20260510104356 8 159 1.6 3.2 0.00 0.05 0.05 74 1007.3
20260510103852 8 336 1.6 3.2 0.00 0.05 0.05 75 1007.1
20260510103349 8 6 3.2 4.8 0.00 0.05 0.05 75 1007.2
20260510102844 8 66 1.6 3.2 0.00 0.05 0.05 76 1006.9
20260510102340 8 120 0.0 0.0 0.00 0.05 0.05 76 1006.9
20260510101838 8 124 0.0 1.6 0.00 0.05 0.05 76 1006.5
20260510101336 8 109 0.0 0.0 0.00 0.05 0.05 75 1006.5
20260510100832 8 144 1.6 1.6 0.00 0.05 0.05 75 1006.6
20260510100330 8 61 1.6 1.6 0.00 0.05 0.05 75 1006.5
20260510095826 8 109 1.6 3.2 0.00 0.05 0.05 75 1006.3
20260510095320 8 129 0.0 0.0 0.00 0.05 0.05 75 1006.3
20260510094814 8 121 1.6 1.6 0.00 0.05 0.05 74 1006.4
20260510094310 8 340 4.8 6.4 0.00 0.05 0.05 75 1006.2
20260510093806 8 131 3.2 3.2 0.00 0.05 0.05 77 1006.3
20260510093303 8 89 0.0 1.6 0.00 0.05 0.05 80 1006.3
20260510092759 8 141 0.0 1.6 0.00 0.05 0.05 81 1006.0
20260510092255 9 123 0.0 0.0 0.00 0.05 0.05 81 1005.8
20260510091750 9 157 0.0 1.6 0.00 0.05 0.05 80 1005.8
20260510091248 9 152 0.0 1.6 0.00 0.05 0.05 80 1005.9
20260510090744 9 94 0.0 0.0 0.00 0.05 0.05 80 1005.7
20260510090242 9 129 0.0 0.0 0.00 0.05 0.05 79 1005.7
20260510085737 9 120 0.0 0.0 0.00 0.05 0.05 78 1005.4
20260510085231 9 100 1.6 1.6 0.00 0.05 0.05 78 1005.4
20260510084728 9 43 1.6 1.6 0.00 0.05 0.05 80 1005.3
20260510084225 8 125 0.0 0.0 0.00 0.05 0.05 86 1005.3
20260510083721 8 123 0.0 0.0 0.00 0.05 0.05 89 1005.4
20260510083219 8 128 0.0 0.0 0.00 0.05 0.05 89 1005.2
20260510082714 8 139 0.0 0.0 0.00 0.05 0.05 90 1005.0
20260510082211 8 129 0.0 0.0 0.00 0.05 0.05 90 1005.1
20260510081704 8 129 0.0 0.0 0.00 0.05 0.05 91 1004.8
20260510081201 8 129 0.0 0.0 0.00 0.05 0.05 90 1004.9
20260510080700 7 129 0.0 0.0 0.00 0.05 0.05 90 1004.8
20260510080157 7 129 0.0 0.0 0.00 0.05 0.05 90 1004.7
20260510075654 7 129 0.0 0.0 0.00 0.05 0.05 88 1004.7
20260510075152 7 129 0.0 0.0 0.00 0.05 0.05 88 1004.6
20260510074649 7 129 0.0 0.0 0.00 0.05 0.05 87 1004.4
20260510074144 8 129 0.0 0.0 0.00 0.05 0.05 85 1004.3
20260510073641 8 129 0.0 0.0 0.00 0.05 0.05 84 1004.2
20260510073137 8 129 0.0 0.0 0.00 0.05 0.05 83 1004.2
20260510072633 8 128 0.0 0.0 0.00 0.05 0.05 82 1004.1
20260510072130 9 124 0.0 0.0 0.00 0.05 0.05 80 1004.2
20260510071626 9 122 0.0 0.0 0.00 0.05 0.05 79 1004.0
20260510071124 9 111 0.0 0.0 0.00 0.05 0.05 79 1003.6
20260510070621 9 116 0.0 0.0 0.00 0.05 0.05 79 1003.8
20260510070119 10 136 0.0 0.0 0.00 0.05 0.05 79 1003.6
20260510065614 10 139 1.6 3.2 0.00 0.05 0.05 77 1003.9
20260510065110 10 142 0.0 0.0 0.00 0.05 0.05 76 1003.6
20260510064607 10 123 1.6 1.6 0.00 0.05 0.05 76 1003.7
20260510064104 10 118 1.6 1.6 0.00 0.05 0.05 76 1003.9
20260510063601 10 127 0.0 0.0 0.00 0.05 0.05 76 1003.7
20260510063058 10 143 0.0 0.0 0.00 0.05 0.05 74 1003.8
20260510062553 10 57 1.6 1.6 0.00 0.05 0.05 74 1003.7
20260510062049 10 101 1.6 1.6 0.00 0.05 0.05 73 1003.5
20260510061545 10 17 3.2 4.8 0.00 0.05 0.05 74 1003.7
20260510061042 11 124 0.0 0.0 0.00 0.05 0.05 75 1003.6
20260510060539 11 133 0.0 0.0 0.00 0.05 0.05 74 1003.4
20260510060035 11 117 1.6 3.2 0.00 0.05 0.05 75 1003.4
20260510055531 11 89 1.6 3.2 0.00 0.05 0.05 75 1003.2
20260510055029 11 2 1.6 3.2 0.00 0.05 0.05 75 1003.1
20260510054525 11 127 1.6 3.2 0.00 0.05 0.05 77 1003.1
20260510054020 11 317 3.2 6.4 0.00 0.05 0.05 77 1003.1
20260510053515 11 71 3.2 6.4 0.00 0.05 0.05 78 1002.9
20260510053012 11 135 3.2 3.2 0.00 0.05 0.05 78 1003.0
20260510052508 11 79 3.2 4.8 0.00 0.05 0.05 78 1002.9
20260510052004 11 49 4.8 4.8 0.00 0.05 0.05 78 1002.7
20260510051500 12 126 4.8 9.7 0.00 0.05 0.05 82 1002.5
20260510050956 13 41 3.2 6.4 0.00 0.05 0.05 86 1002.3
20260510050454 13 97 3.2 4.8 0.00 0.05 0.05 85 1001.9
20260510045951 14 223 1.6 1.6 0.00 0.05 0.05 84 1001.7
20260510045448 13 122 3.2 6.4 0.00 0.05 0.05 83 1001.4
20260510044944 13 347 1.6 4.8 0.00 0.05 0.05 82 1001.4
20260510044441 14 172 3.2 3.2 0.18 0.05 0.05 81 1001.2
20260510043938 15 135 0.0 0.0 0.18 0.05 0.05 81 1001.3
20260510043434 16 292 6.4 9.7 0.00 0.03 0.03 74 1001.1
20260510042932 15 174 1.6 1.6 0.00 0.03 0.03 68 1000.4
20260510042428 15 164 3.2 3.2 0.13 0.03 0.03 67 1000.4
20260510041924 16 284 4.8 4.8 0.13 0.03 0.03 69 1000.7
20260510041421 15 247 8.0 11.3 0.00 0.00 0.00 61 1000.2
20260510040919 15 161 3.2 3.2 0.00 0.00 0.00 75 1000.2
20260510040415 15 181 3.2 3.2 0.00 0.00 0.00 75 1000.3
20260510035911 15 172 1.6 1.6 0.00 0.71 0.71 75 1000.0
20260510035408 15 159 1.6 3.2 0.00 0.71 0.71 74 1000.0
20260510034902 15 167 1.6 1.6 0.00 0.71 0.71 76 1000.0
20260510034401 15 164 1.6 3.2 0.00 0.71 0.71 76 1000.0
20260510033857 15 167 0.0 0.0 0.00 0.71 0.71 77 999.9
20260510033353 15 152 1.6 1.6 0.00 0.71 0.71 78 999.8
20260510032850 15 159 1.6 1.6 0.00 0.71 0.71 77 999.9
20260510032347 15 155 1.6 1.6 0.00 0.71 0.71 78 999.8
20260510031842 15 164 0.0 0.0 0.00 0.71 0.71 78 999.8
20260510031338 15 159 1.6 1.6 0.00 0.71 0.71 78 1000.0
20260510030838 15 164 1.6 1.6 0.00 0.71 0.71 79 999.9
20260510030334 15 184 3.2 3.2 0.00 0.71 0.71 78 999.9
20260510025832 15 172 1.6 3.2 0.00 0.71 0.71 78 999.9
20260510025329 15 218 1.6 3.2 0.00 0.71 0.71 77 999.9
20260510024826 15 178 3.2 3.2 0.00 0.71 0.71 78 999.9
20260510024323 15 183 1.6 1.6 0.00 0.71 0.71 78 999.8
20260510023819 15 162 0.0 0.0 0.00 0.71 0.71 78 999.6
20260510023315 15 156 0.0 0.0 0.00 0.71 0.71 78 999.7
20260510022813 15 167 1.6 1.6 0.00 0.71 0.71 78 999.7
20260510022312 15 266 3.2 4.8 0.00 0.71 0.71 79 999.9
20260510021811 15 162 1.6 1.6 0.00 0.71 0.71 79 999.6
20260510021310 15 162 1.6 1.6 0.00 0.71 0.71 79 999.8
20260510020805 15 168 4.8 4.8 0.00 0.71 0.71 79 1000.0
20260510020305 15 190 3.2 4.8 0.00 0.71 0.71 81 999.8
20260510015802 14 164 1.6 1.6 0.00 0.71 0.71 82 999.9
20260510015258 14 151 0.0 0.0 0.00 0.71 0.71 82 999.6
20260510014753 14 251 1.6 4.8 0.00 0.71 0.71 83 999.4
20260510014250 14 157 0.0 0.0 0.00 0.71 0.71 84 999.3
20260510013746 14 151 0.0 0.0 0.00 0.71 0.71 82 999.4
20260510013242 14 157 0.0 0.0 0.00 0.71 0.71 83 999.2
20260510012737 14 158 0.0 0.0 0.00 0.71 0.71 82 999.2
20260510012232 14 157 0.0 0.0 0.00 0.71 0.71 81 999.0
20260510011731 15 167 0.0 1.6 0.00 0.71 0.71 80 999.2
20260510011228 15 155 0.0 0.0 0.00 0.71 0.71 79 998.9
20260510010725 15 157 0.0 1.6 0.00 0.71 0.71 79 999.0
20260510010221 15 175 3.2 3.2 0.00 0.71 0.71 79 999.1
20260510005718 15 160 1.6 1.6 0.00 0.71 0.71 80 999.1
20260510005214 15 177 1.6 1.6 0.00 0.71 0.71 79 999.1
20260510004712 15 234 1.6 3.2 0.00 0.71 0.71 80 999.0
20260510004210 15 166 0.0 0.0 0.00 0.71 0.71 80 998.9
20260510003708 15 175 1.6 1.6 0.00 0.71 0.71 80 999.0
20260510003203 15 165 1.6 1.6 0.00 0.71 0.71 78 999.1
20260510002658 15 170 3.2 3.2 0.00 0.71 0.71 78 999.0
20260510002155 15 160 3.2 3.2 0.00 0.71 0.71 79 999.1
20260510001651 15 171 6.4 6.4 0.00 0.71 0.71 79 999.0
20260510001150 15 162 1.6 3.2 0.00 0.71 0.71 80 999.0
20260510000650 15 155 1.6 1.6 0.00 0.71 0.71 81 999.0
20260510000148 15 245 3.2 3.2 0.00 0.71 0.71 83 998.9
20260509235644 15 199 6.4 9.7 0.00 0.71 0.71 84 999.1
20260509235141 15 152 4.8 4.8 0.00 0.71 0.71 85 998.9
20260509234637 15 161 0.0 0.0 0.00 0.71 0.71 86 999.0
20260509234134 15 189 1.6 1.6 0.00 0.71 0.71 85 998.8
20260509233632 15 187 1.6 3.2 0.00 0.71 0.71 86 998.8
20260509233130 15 164 3.2 3.2 0.00 0.71 0.71 88 998.5
20260509232625 14 157 0.0 1.6 0.00 0.71 0.71 89 998.7
20260509232122 13 171 1.6 1.6 0.00 0.71 0.71 90 998.5
20260509231619 13 148 1.6 3.2 0.00 0.71 0.71 92 998.4
20260509231117 13 167 1.6 1.6 0.00 0.71 0.71 93 998.7
20260509230613 13 155 3.2 3.2 0.18 0.71 0.71 93 998.7
20260509230111 13 149 1.6 1.6 0.48 0.71 0.71 93 998.8
20260509225606 13 164 1.6 3.2 0.30 0.69 0.69 94 998.7
20260509225101 13 194 4.8 6.4 0.00 0.64 0.64 94 998.9
20260509224557 13 154 3.2 3.2 0.00 0.64 0.64 95 998.8
20260509224055 13 159 0.0 0.0 0.13 0.64 0.64 94 998.7
20260509223551 13 49 1.6 1.6 0.13 0.64 0.64 94 998.6
20260509223049 13 160 1.6 1.6 0.48 0.61 0.61 94 998.7
20260509222545 13 91 4.8 6.4 3.07 0.61 0.61 94 998.9
20260509222041 13 117 8.0 9.7 3.17 0.53 0.53 90 998.9
20260509221537 16 113 3.2 4.8 0.61 0.10 0.10 78 998.3
20260509221033 20 9 8.0 17.7 0.00 0.00 0.00 59 998.1
20260509220529 21 324 3.2 4.8 0.00 0.00 0.00 56 996.7
20260509220026 21 177 6.4 11.3 0.00 0.00 0.00 55 996.4
20260509215521 21 164 4.8 4.8 0.00 0.00 0.00 55 996.4
20260509215018 21 175 4.8 6.4 0.00 0.00 0.00 55 996.4
20260509214515 21 170 6.4 11.3 0.00 0.00 0.00 54 996.3
20260509214012 21 145 8.0 11.3 0.00 0.00 0.00 53 996.2
20260509213508 21 130 3.2 3.2 0.00 0.00 0.00 54 996.1
20260509213006 21 160 8.0 11.3 0.00 0.00 0.00 53 996.1
20260509212502 21 145 6.4 9.7 0.00 0.00 0.00 52 996.4
20260509211959 22 187 3.2 3.2 0.00 0.00 0.00 52 996.0
20260509211454 22 150 6.4 9.7 0.00 0.00 0.00 52 996.3
20260509210951 22 170 8.0 14.5 0.00 0.00 0.00 51 995.9
20260509210448 22 156 3.2 3.2 0.00 0.00 0.00 53 995.8
20260509205944 22 168 9.7 17.7 0.00 0.00 0.00 52 996.3
20260509205439 22 184 8.0 9.7 0.00 0.00 0.00 52 996.0
20260509204935 22 180 3.2 4.8 0.00 0.00 0.00 55 996.4
20260509204431 22 154 4.8 4.8 0.00 0.00 0.00 52 996.3
20260509203928 22 268 6.4 12.9 0.00 0.00 0.00 52 996.5
20260509203424 22 166 1.6 3.2 0.00 0.00 0.00 55 996.7
20260509202922 22 192 9.7 12.9 0.00 0.00 0.00 54 996.7
20260509202417 23 162 6.4 11.3 0.00 0.00 0.00 54 996.9
20260509201913 22 161 1.6 1.6 0.00 0.00 0.00 55 996.8
20260509201408 22 159 3.2 4.8 0.00 0.00 0.00 53 997.0
20260509200906 22 212 8.0 11.3 0.00 0.00 0.00 54 997.1
20260509200405 22 172 6.4 12.9 0.00 0.00 0.00 54 997.2
20260509195902 22 282 6.4 14.5 0.00 0.00 0.00 54 997.2
20260509195402 22 182 3.2 3.2 0.00 0.00 0.00 55 997.2
20260509194856 22 271 9.7 14.5 0.00 0.00 0.00 54 997.3
20260509194353 22 172 4.8 4.8 0.00 0.00 0.00 56 997.6
20260509193849 21 260 8.0 11.3 0.00 0.00 0.00 54 997.6
20260509193350 22 167 3.2 3.2 0.00 0.00 0.00 56 997.6
20260509192846 21 173 6.4 9.7 0.00 0.00 0.00 55 997.6
20260509192342 21 182 6.4 11.3 0.00 0.00 0.00 57 997.9
20260509191837 21 187 9.7 12.9 0.00 0.00 0.00 56 997.9
20260509191333 21 192 3.2 3.2 0.00 0.00 0.00 57 997.9
20260509190829 22 150 6.4 6.4 0.00 0.00 0.00 56 997.9
20260509190326 22 150 9.7 16.1 0.00 0.00 0.00 56 998.0
20260509185824 21 185 6.4 9.7 0.00 0.00 0.00 57 998.0
20260509185320 21 18 3.2 3.2 0.00 0.00 0.00 57 998.2
20260509184818 21 198 3.2 3.2 0.00 0.00 0.00 59 998.0
20260509184315 21 144 6.4 9.7 0.00 0.00 0.00 57 998.2
20260509183811 21 157 6.4 6.4 0.00 0.00 0.00 57 998.2
20260509183307 21 171 6.4 6.4 0.00 0.00 0.00 58 998.3
20260509182802 20 175 4.8 4.8 0.00 0.00 0.00 58 998.3
20260509182300 20 141 3.2 4.8 0.00 0.00 0.00 60 998.4
20260509181757 20 265 11.3 14.5 0.00 0.00 0.00 59 998.7
20260509181255 20 198 3.2 4.8 0.00 0.00 0.00 59 998.4
20260509180752 20 136 6.4 6.4 0.00 0.00 0.00 59 998.5
20260509180248 20 259 8.0 12.9 0.00 0.00 0.00 58 998.4
20260509175744 20 143 1.6 4.8 0.00 0.00 0.00 61 998.2
20260509175241 20 250 4.8 6.4 0.00 0.00 0.00 59 998.5
20260509174737 20 197 4.8 9.7 0.00 0.00 0.00 60 998.5
20260509174232 20 165 6.4 9.7 0.00 0.00 0.00 60 998.6
20260509173728 20 227 3.2 4.8 0.00 0.00 0.00 61 998.5
20260509173224 20 241 4.8 4.8 0.00 0.00 0.00 63 998.6
20260509172721 20 167 4.8 6.4 0.00 0.00 0.00 61 998.6
20260509172217 20 154 6.4 9.7 0.00 0.00 0.00 62 998.6
20260509171713 20 284 6.4 9.7 0.00 0.00 0.00 64 998.6
20260509171209 20 171 8.0 12.9 0.00 0.00 0.00 64 998.6
20260509170706 19 145 3.2 3.2 0.00 0.00 0.00 62 998.6
20260509170202 20 168 12.9 17.7 0.00 0.00 0.00 63 998.7
20260509165701 18 152 4.8 4.8 0.00 0.00 0.00 63 998.7
20260509165156 18 147 3.2 4.8 0.00 0.00 0.00 61 998.8